User: anonymous   Login
Location: Caltech
(34.1382°N, 118.1253°W)
Time: 16:25:55
(UTC-08:00)
Language:

AO-27 - Orbit

View from above orbital plane
View from above orbital plane
View from above satellite
View from above satellite

Ground track
Ground track

The orbit data is extracted from the following two-line orbital elements,

1 22825U 93061C   16041.45547949  .00000083  00000-0  49847-4 0  9994
2 22825  98.7429 357.0302 0008027 339.0217  21.0634 14.29936950166986
Epoch (UTC): 10 February 2016 10:55:53
Eccentricity: 0.0008027
inclination: 98.7429°
perigee height: 786 km
apogee height: 798 km
right ascension of ascending node: 357.0302°
argument of perigee: 339.0217°
revolutions per day: 14.29936950
mean anomaly at epoch: 21.0634°
orbit number at epoch: 16698

The dashed part of the orbit path shows where the satellite is in the earth's shadow,  

DLR